Location: Fort Wayne
(41.1310°N, 85.1290°W)
Time: 23:52:20
(UTC-04:00)

BREEZE-M DEB (TANK) - Visible Passes

Search period start: 16 October 2017 00:00
Search period end: 26 October 2017 00:00
Orbit: 269 x 13243 km, 49.5° (Epoch: 16 October)

Date Brightness Start Highest point End Pass type
(mag) Time Alt. Az. Time Alt. Az. Time Alt. Az.
19 Oct 2.3 19:50:36 10° WNW 19:52:36 36° SW 19:54:32 10° SE visible
23 Oct 3.0 19:32:12 10° WNW 19:34:08 26° SW 19:35:57 10° SSE visible
25 Oct 8.6 07:46:17 10° SSE 08:21:45 20° SE 08:36:54 10° E visible
